[[{"header":{"parameterUnit":"m.s-1","parameterCategory":1,"la1":30.2991,"la2":30.254,"lo1":-89.0895,"lo2":-89.0444,"dy":0.0017,"dx":0.0017,"nx":28,"ny":28,"refTime":"2025-08-27T21:00:00:Z","depth":0,"parameterNumber":2,"parameterNumberName":"U-component_of_WINDS"},"data":[0,0,0,0,0,0,0,0,0,0,0,0,0,0,0,0,0,0,0,0,0,0,0,0,0,0,0,0,0,0,0,0,0,0,0,0,0,0,0,0,0,0,0,0,0,0,0,0,0,0,0,0,0,0,0,0,0,0,2.1235,2.1234,0,2.117,2.1169,2.1168,2.1075,2.1074,2.1072,2.1071,2.1005,2.1005,2.1004,0,0,0,0,0,0,0,0,0,0,0,0,0,2.1278,2.1278,2.1235,2.1234,2.1233,2.117,2.1169,2.1168,2.1076,2.1074,2.1072,2.107,2.1005,2.1005,2.1004,0,0,0,0,0,0,0,0,0,0,0,0,0,2.1241,2.1278,2.1235,2.1179,2.1174,2.117,2.1169,2.1168,2.1076,2.1074,2.1071,2.1069,2.1005,2.1005,2.1004,2.105,0,0,2.1003,2.1003,0,0,0,0,0,0,0,0,2.1243,2.1239,2.1188,2.1183,2.1177,2.1128,2.116,2.1128,2.1077,2.1113,2.1071,2.1068,2.1048,2.1044,2.1037,2.1047,2.1044,2.1003,2.1003,2.1003,2.1003,0,0,0,0,0,0,0,2.1246,2.1242,2.1209,2.1188,2.1181,2.1157,2.1149,2.1154,2.1095,2.111,2.1103,2.1096,2.1044,2.1038,2.1035,2.1043,2.1003,2.1003,2.1002,2.1002,2.1083,2.1085,0,0,0,0,0,0,2.1257,2.1244,2.1211,2.1207,2.1205,2.1159,2.115,2.1146,2.1095,2.1084,2.1099,2.1092,2.1039,2.1035,2.1032,2.1078,2.1003,2.1002,2.1002,2.108,2.1083,2.1086,0,0,0,0,0,0,2.1258,2.1255,2.1214,2.1224,2.1217,2.116,2.1157,2.1146,2.1139,2.1086,2.1075,2.1102,2.1037,2.1033,2.1045,2.1075,2.1002,2.1002,2.1078,2.1081,2.1085,2.1174,0,0,0,0,0,0,2.126,2.1256,2.1273,2.1225,2.1217,2.1229,2.1159,2.1147,2.1139,2.113,2.1087,2.1077,2.1035,2.1046,2.1045,2.1073,2.1001,2.1075,2.1079,2.1083,2.1168,2.118,2.1191,0,0,0,0,0,2.1261,2.1302,2.1274,2.1271,2.1237,2.1231,2.1226,2.1176,2.1142,2.1158,2.1123,2.1079,2.1073,2.1048,2.1046,2.1075,2.1072,2.1078,2.1083,2.1163,2.1178,2.119,0,0,0,0,0,0,2.1355,2.1294,2.1263,2.1289,2.1266,2.1215,2.1234,2.1194,2.118,2.1172,2.1112,2.1103,2.1122,2.11,2.1074,2.1114,2.1066,2.1071,2.1127,2.1141,2.1152,2.1156,2.1001,0,0,0,0,0,2.1379,2.1379,2.1326,2.1354,2.1343,2.1291,2.1286,2.125,2.1223,2.1213,2.1179,2.1155,2.1147,2.1143,2.1134,2.1166,2.1153,2.1184,2.1195,2.1205,2.1209,2.122,2.1232,2.1103,2.1103,2.1103,0,0,2.1428,2.1394,2.1398,2.1372,2.1349,2.1349,2.1283,2.1287,2.1286,2.1214,2.1222,2.1197,2.1166,2.1187,2.1195,2.1169,2.1242,2.1211,2.1219,2.1218,2.1227,2.1239,2.125,2.1107,2.1106,2.1106,0,0,2.1516,2.1492,2.1511,2.1489,2.1455,2.142,2.1425,2.138,2.1359,2.1367,2.1312,2.131,2.1299,2.1277,2.1265,2.1344,2.1301,2.1343,2.14,2.1412,2.1422,2.1431,2.1455,2.1465,2.1348,2.1348,2.1348,0,2.158,2.1579,2.1526,2.1532,2.152,2.1454,2.1472,2.1454,2.1419,2.1412,2.1384,2.1366,2.1341,2.1355,2.1373,2.1367,2.1369,2.1346,2.1425,2.1433,2.144,2.1463,2.1473,2.1353,2.1352,2.1352,2.1351,0,2.1658,2.1658,2.1677,2.1643,2.1635,2.1647,2.1595,2.1592,2.1557,2.1524,2.1531,2.1498,2.1479,2.148,2.1447,2.1488,2.1473,2.1436,2.1386,2.1458,2.1478,2.1487,2.136,2.1358,2.1357,2.1356,0,0,2.1802,2.1738,2.1746,2.1728,2.1686,2.1684,2.1693,2.1673,2.167,2.1649,2.1653,2.1644,2.1608,2.1595,2.1558,2.1569,2.1628,2.153,2.1528,2.1546,2.1668,2.1693,2.1704,2.1601,2.1602,2.1604,2.1669,0,2.1879,2.1889,2.1841,2.1863,2.1861,2.1797,2.1804,2.1778,2.1748,2.1741,2.1707,2.17,2.1656,2.1647,2.1655,2.1619,2.1651,2.1614,2.1601,2.1601,2.1608,2.1715,2.1743,2.1806,2.1677,2.1678,2.1679,0,2.197,2.1951,2.1973,2.1927,2.1924,2.1931,2.1907,2.1902,2.1871,2.1848,2.1832,2.1789,2.1792,2.1746,2.1749,2.1724,2.1716,2.1698,2.1699,2.1693,2.1643,2.1709,2.1826,2.1834,2.1692,2.1691,2.169,0,2.2068,2.2049,2.2059,2.2046,2.1994,2.1999,2.1978,2.1944,2.1934,2.1914,2.1907,2.1888,2.1877,2.1863,2.1815,2.1787,2.1822,2.1773,2.18,2.1801,2.1808,2.1808,2.1922,2.1809,2.1809,2.1809,2.1809,0,2.2157,2.2172,2.2101,2.2107,2.2121,2.2066,2.2081,2.2053,2.2024,2.2022,2.1967,2.1966,2.1905,2.1897,2.186,2.1865,2.1862,2.1842,2.1831,2.1844,2.1847,2.1836,2.1829,2.1811,2.1811,2.181,2.181,0,2.2268,2.2222,2.2227,2.2177,2.2164,2.2176,2.2132,2.2135,2.2101,2.2099,2.2095,2.2041,2.2029,2.198,2.1957,2.1932,2.1948,2.193,2.1958,2.1951,2.1979,2.1976,2.2088,2.2098,2.1983,2.1984,2.1985,0,2.2326,2.2336,2.2286,2.228,2.226,2.2253,2.2242,2.2188,2.2179,2.2143,2.2149,2.2132,2.2115,2.2098,2.2056,2.2037,2.2015,2.2056,2.2012,2.2024,2.2011,2.201,2.2009,2.2064,2.2066,2.2067,2.2068,0,2.2433,2.2409,2.2396,2.2374,2.2363,2.2343,2.232,2.2319,2.2258,2.2251,2.2237,2.2224,2.2198,2.2181,2.2154,2.2131,2.2089,2.2083,2.2087,2.21,2.2114,2.2103,2.198,2.208,2.2079,2.2078,2.2077,2.2077,2.2516,2.2521,2.2485,2.2471,2.2448,2.2428,2.2426,2.2392,2.2379,2.2354,2.2323,2.2312,2.2278,2.2238,2.2217,2.2207,2.2184,2.2192,2.2193,2.2195,2.22,2.2119,2.2203,2.2202,2.2202,2.2202,2.2201,0,2.2617,2.2591,2.2579,2.2548,2.2536,2.2499,2.2471,2.2463,2.2454,2.2427,2.2411,2.2393,2.2376,2.2332,2.231,2.231,2.229,2.2306,2.2304,2.2298,2.2224,2.222,2.2322,2.2322,2.2322,2.2322,2.2322,2.2322,2.2667,2.2671,2.2643,2.2635,2.2608,2.2597,2.2584,2.2564,2.2541,2.2523,2.2508,2.248,2.2445,2.242,2.2401,2.2389,2.2382,2.2403,2.2385,2.2315,2.2304,2.2293,2.2289,2.2403,2.2403,2.2459,2.2459,2.246]},{"header":{"parameterUnit":"m.s-1","parameterCategory":1,"la1":30.2991,"la2":30.254,"lo1":-89.0895,"lo2":-89.0444,"dy":0.0017,"dx":0.0017,"nx":28,"ny":28,"refTime":"2025-08-27T21:00:00:Z","depth":0,"parameterNumber":3,"parameterNumberName":"V-component_of_WINDS"},"data":[0,0,0,0,0,0,0,0,0,0,0,0,0,0,0,0,0,0,0,0,0,0,0,0,0,0,0,0,0,0,0,0,0,0,0,0,0,0,0,0,0,0,0,0,0,0,0,0,0,0,0,0,0,0,0,0,0,0,3.2473,3.2474,0,3.2521,3.2522,3.2522,3.248,3.2478,3.2476,3.2474,3.2521,3.2523,3.2526,0,0,0,0,0,0,0,0,0,0,0,0,0,3.234,3.2343,3.2473,3.2474,3.2474,3.2521,3.2522,3.2522,3.248,3.2478,3.2476,3.2474,3.252,3.2523,3.2527,0,0,0,0,0,0,0,0,0,0,0,0,0,3.2394,3.2343,3.2473,3.2459,3.2458,3.2521,3.2522,3.2523,3.248,3.2478,3.2475,3.2473,3.2519,3.2523,3.2527,3.2605,0,0,3.254,3.2542,0,0,0,0,0,0,0,0,3.2391,3.2399,3.246,3.246,3.2459,3.2492,3.2492,3.255,3.2481,3.2472,3.2474,3.2471,3.2513,3.2518,3.2532,3.2608,3.261,3.254,3.2543,3.2545,3.2546,0,0,0,0,0,0,0,3.2387,3.2396,3.2492,3.2461,3.2461,3.2448,3.2453,3.2503,3.2506,3.2472,3.2469,3.2476,3.2512,3.2528,3.2533,3.261,3.254,3.2544,3.2547,3.2548,3.2749,3.2751,0,0,0,0,0,0,3.2385,3.2394,3.249,3.2493,3.2418,3.2453,3.2458,3.2484,3.2506,3.2507,3.2478,3.2474,3.2522,3.2528,3.2534,3.2625,3.2545,3.2549,3.2551,3.2746,3.2749,3.2752,0,0,0,0,0,0,3.2383,3.2394,3.2489,3.2443,3.2454,3.2458,3.2487,3.2486,3.2502,3.251,3.251,3.2494,3.252,3.2528,3.2587,3.2626,3.2551,3.2555,3.2743,3.2747,3.2751,3.2808,0,0,0,0,0,0,3.2379,3.2394,3.2425,3.2444,3.2456,3.2542,3.249,3.2489,3.251,3.2505,3.2525,3.2526,3.2519,3.2581,3.2592,3.263,3.2558,3.2739,3.2745,3.2749,3.2803,3.2814,3.2823,0,0,0,0,0,3.2374,3.2439,3.2427,3.2439,3.2496,3.2545,3.2552,3.2543,3.2513,3.2543,3.2548,3.2525,3.2621,3.2588,3.2599,3.264,3.2737,3.2743,3.2749,3.2798,3.2812,3.2823,0,0,0,0,0,0,3.2424,3.2442,3.2428,3.2501,3.2522,3.2538,3.2575,3.2558,3.2587,3.2581,3.2569,3.2574,3.2635,3.2644,3.2607,3.2715,3.2673,3.2682,3.2707,3.272,3.273,3.2725,3.2562,0,0,0,0,0,3.2444,3.2484,3.2496,3.256,3.2571,3.2572,3.2593,3.2584,3.2605,3.2613,3.2622,3.2642,3.2676,3.2699,3.2731,3.2804,3.2806,3.2838,3.2848,3.2856,3.2863,3.2899,3.2912,3.2773,3.2773,3.2772,0,0,3.2485,3.2499,3.2525,3.257,3.2585,3.2624,3.2579,3.2624,3.2652,3.262,3.2675,3.2683,3.2704,3.277,3.2799,3.2778,3.2902,3.2864,3.2871,3.2873,3.2907,3.292,3.2932,3.2777,3.2776,3.2775,0,0,3.2578,3.2595,3.2648,3.2663,3.2687,3.2687,3.2699,3.2717,3.2721,3.2777,3.2753,3.2786,3.2846,3.2861,3.2876,3.2974,3.2952,3.2984,3.3037,3.3072,3.3083,3.3093,3.3124,3.3136,3.2992,3.2992,3.2992,0,3.2626,3.2685,3.2677,3.2722,3.2741,3.2714,3.2766,3.2782,3.2814,3.2827,3.2804,3.2877,3.2889,3.2957,3.298,3.2995,3.3007,3.2981,3.3082,3.3092,3.3101,3.3131,3.3143,3.2995,3.2995,3.2995,3.2994,0,3.2741,3.2782,3.2822,3.2854,3.2877,3.2926,3.2923,3.2948,3.2937,3.2939,3.2994,3.3008,3.3041,3.3057,3.3048,3.3122,3.3108,3.3085,3.3042,3.3118,3.3145,3.3157,3.3001,3.2999,3.2998,3.2997,0,0,3.2867,3.2892,3.2907,3.2919,3.2942,3.2973,3.302,3.3052,3.3072,3.3096,3.3132,3.3183,3.316,3.3177,3.3169,3.3201,3.3273,3.3172,3.3172,3.3187,3.3352,3.3368,3.3382,3.326,3.3262,3.3264,3.3349,0,3.2959,3.304,3.3033,3.3109,3.3145,3.3119,3.3159,3.3176,3.3179,3.3209,3.3211,3.3246,3.3214,3.3224,3.3255,3.3258,3.3305,3.3252,3.3291,3.3292,3.3284,3.3397,3.3415,3.3495,3.3361,3.3363,3.3364,0,3.3078,3.3104,3.3184,3.3198,3.3213,3.325,3.3277,3.3307,3.3325,3.3325,3.3344,3.3329,3.3373,3.3332,3.3391,3.3354,3.337,3.3374,3.3377,3.3378,3.3331,3.3399,3.3521,3.3532,3.3382,3.338,3.3379,0,3.3158,3.3214,3.3268,3.328,3.3299,3.3324,3.3334,3.3349,3.3369,3.3393,3.3404,3.3434,3.3449,3.3471,3.3464,3.3435,3.3523,3.3482,3.3521,3.3522,3.3539,3.3538,3.3663,3.3555,3.3554,3.3554,3.3554,0,3.326,3.3309,3.3303,3.3336,3.3389,3.338,3.3432,3.3438,3.3452,3.3483,3.3464,3.3494,3.3484,3.3513,3.3508,3.3556,3.3564,3.3563,3.356,3.3563,3.3563,3.3571,3.3564,3.3557,3.3557,3.3556,3.3555,0,3.3358,3.3357,3.3413,3.3426,3.3431,3.3469,3.348,3.3509,3.351,3.3551,3.356,3.356,3.3593,3.3589,3.3626,3.3622,3.3681,3.3673,3.3675,3.3672,3.3711,3.3706,3.3844,3.386,3.3743,3.3745,3.3746,0,3.3422,3.3458,3.3475,3.3496,3.3506,3.354,3.3558,3.355,3.357,3.3593,3.3619,3.3651,3.3675,3.3729,3.3731,3.3759,3.375,3.3796,3.3754,3.3754,3.3747,3.3744,3.3746,3.3804,3.3805,3.3806,3.3807,0,3.3534,3.3531,3.356,3.3588,3.3611,3.3633,3.3653,3.367,3.3663,3.3686,3.372,3.3739,3.3776,3.3807,3.3832,3.384,3.3821,3.3821,3.3831,3.3833,3.3831,3.3829,3.3694,3.3817,3.3816,3.3815,3.3815,3.3814,3.3615,3.3645,3.3661,3.3693,3.3707,3.3725,3.3752,3.3756,3.3784,3.3814,3.3807,3.3844,3.3859,3.3891,3.3902,3.3929,3.3912,3.3928,3.3931,3.3934,3.3937,3.3829,3.3935,3.3934,3.3934,3.3934,3.3934,0,3.3724,3.3732,3.3762,3.3789,3.3814,3.3796,3.3815,3.3836,3.387,3.3885,3.3909,3.3947,3.3975,3.398,3.4007,3.4028,3.402,3.4035,3.4032,3.4034,3.3953,3.394,3.4041,3.4041,3.4041,3.4041,3.4041,3.4041,3.3783,3.3832,3.3831,3.3885,3.3893,3.393,3.3942,3.3958,3.397,3.4012,3.4036,3.4039,3.405,3.4077,3.4102,3.4103,3.4112,3.413,3.4127,3.4051,3.404,3.403,3.4017,3.4133,3.4133,3.4205,3.4206,3.4206]}]]